Time,TemperatureF,DewpointF,PressureIn,WindDirection,WindDirectionDegrees,WindSpeedMPH,WindSpeedGustMPH,Humidity,HourlyPrecipIn,Conditions,Clouds,dailyrainin,SoftwareType,DateUTC
2013-06-20 00:53:00,56.0,53.0,29.99,North,359,0.0,5.0,90,43.37,,,-99.99,,2013-06-20 07:53:00,
2013-06-20 01:02:00,56.0,53.0,29.99,SSW,212,2.0,9.0,90,43.37,,,-99.99,,2013-06-20 08:02:00,
2013-06-20 01:11:00,56.0,53.0,29.99,West,276,1.0,10.0,91,43.37,,,-99.99,,2013-06-20 08:11:00,
2013-06-20 01:22:00,56.0,53.0,30.00,North,359,1.0,9.0,89,43.37,,,-99.99,,2013-06-20 08:22:00,
2013-06-20 01:33:00,56.0,53.0,29.99,SW,222,1.0,8.0,89,43.37,,,-99.99,,2013-06-20 08:33:00,
2013-06-20 01:43:00,56.0,53.0,29.99,SW,222,1.0,8.0,89,43.37,,,-99.99,,2013-06-20 08:43:00,
2013-06-20 01:52:00,56.0,53.0,29.99,SW,222,1.0,8.0,89,43.37,,,-99.99,,2013-06-20 08:52:00,
2013-06-20 02:01:00,56.0,53.0,29.99,SW,222,1.0,8.0,89,43.37,,,-99.99,,2013-06-20 09:01:00,
2013-06-20 02:11:00,56.0,53.0,29.99,SW,222,1.0,8.0,89,43.37,,,-99.99,,2013-06-20 09:11:00,
2013-06-20 02:22:00,56.0,51.0,29.98,North,359,3.0,9.0,84,43.37,,,-99.99,,2013-06-20 09:22:00,
2013-06-20 02:33:00,56.0,51.0,29.98,NW,326,2.0,10.0,84,43.37,,,-99.99,,2013-06-20 09:33:00,
2013-06-20 02:43:00,56.0,52.0,29.98,South,170,2.0,11.0,85,43.37,,,-99.99,,2013-06-20 09:43:00,
2013-06-20 02:52:00,56.0,51.0,29.97,North,359,3.0,10.0,84,43.37,,,-99.99,,2013-06-20 09:52:00,
2013-06-20 03:01:00,56.0,51.0,29.98,North,359,2.0,11.0,84,43.37,,,-99.99,,2013-06-20 10:01:00,
2013-06-20 03:11:00,56.0,52.0,29.98,North,359,1.0,7.0,85,43.37,,,-99.99,,2013-06-20 10:11:00,
2013-06-20 03:22:00,56.0,52.0,29.98,North,359,1.0,7.0,85,43.37,,,-99.99,,2013-06-20 10:22:00,
2013-06-20 03:43:00,55.0,51.0,29.97,SSE,148,0.0,8.0,86,43.37,,,-99.99,,2013-06-20 10:43:00,
2013-06-20 03:53:00,55.0,51.0,29.97,North,0,0.0,0.0,87,43.37,,,-99.99,,2013-06-20 10:53:00,
2013-06-20 04:01:00,55.0,51.0,29.97,North,0,0.0,0.0,87,43.37,,,-99.99,,2013-06-20 11:01:00,
2013-06-20 04:11:00,55.0,52.0,29.97,North,0,0.0,0.0,88,43.37,,,-99.99,,2013-06-20 11:11:00,
2013-06-20 04:22:00,55.0,52.0,29.97,North,359,1.0,6.0,89,43.37,,,-99.99,,2013-06-20 11:22:00,
2013-06-20 04:33:00,55.0,52.0,29.97,North,359,0.0,5.0,90,43.37,,,-99.99,,2013-06-20 11:33:00,
2013-06-20 04:42:00,55.0,52.0,29.97,South,176,3.0,9.0,90,43.37,,,-99.99,,2013-06-20 11:42:00,
2013-06-20 04:52:00,54.0,51.0,29.97,SW,217,1.0,8.0,91,43.37,,,-99.99,,2013-06-20 11:52:00,
2013-06-20 05:02:00,54.0,51.0,29.97,North,359,2.0,10.0,91,43.37,,,-99.99,,2013-06-20 12:02:00,
2013-06-20 05:22:00,54.0,52.0,29.97,North,0,0.0,0.0,92,43.37,,,-99.99,,2013-06-20 12:22:00,
2013-06-20 06:01:00,54.0,52.0,29.97,SSW,195,1.0,10.0,94,43.37,,,-99.99,,2013-06-20 13:01:00,
2013-06-20 06:11:00,54.0,53.0,29.97,SSE,155,1.0,9.0,95,43.37,,,-99.99,,2013-06-20 13:11:00,
2013-06-20 06:22:00,54.0,53.0,29.97,SSW,200,2.0,8.0,95,43.37,,,-99.99,,2013-06-20 13:22:00,
2013-06-20 06:33:00,54.0,53.0,29.97,North,359,1.0,10.0,95,43.37,,,-99.99,,2013-06-20 13:33:00,
2013-06-20 06:42:00,54.0,53.0,29.97,SSE,165,2.0,9.0,95,43.37,,,-99.99,,2013-06-20 13:42:00,
2013-06-20 06:53:00,54.0,53.0,29.97,North,359,0.0,10.0,95,43.37,,,-99.99,,2013-06-20 13:53:00,
2013-06-20 07:11:00,54.0,53.0,29.97,North,359,0.0,10.0,95,43.37,,,-99.99,,2013-06-20 14:11:00,
2013-06-20 07:22:00,54.0,53.0,29.97,North,359,0.0,10.0,95,43.37,,,-99.99,,2013-06-20 14:22:00,
2013-06-20 07:42:00,54.0,52.0,29.96,SW,229,3.0,11.0,93,43.37,,,-99.99,,2013-06-20 14:42:00,
2013-06-20 08:11:00,54.0,52.0,29.96,SSW,198,1.0,7.0,94,43.37,,,-99.99,,2013-06-20 15:11:00,
2013-06-20 08:21:00,54.0,52.0,29.96,WSW,240,2.0,8.0,93,43.37,,,-99.99,,2013-06-20 15:21:00,
2013-06-20 08:33:00,54.0,52.0,29.96,WSW,240,2.0,8.0,93,43.37,,,-99.99,,2013-06-20 15:33:00,
2013-06-20 08:43:00,55.0,53.0,29.96,SW,215,4.0,10.0,92,43.37,,,-99.99,,2013-06-20 15:43:00,
2013-06-20 08:53:00,55.0,53.0,29.96,SSW,210,3.0,7.0,92,43.37,,,-99.99,,2013-06-20 15:53:00,
2013-06-20 09:01:00,55.0,53.0,29.96,SSW,210,3.0,7.0,92,43.37,,,-99.99,,2013-06-20 16:01:00,
2013-06-20 09:11:00,55.0,53.0,29.96,SSW,210,3.0,7.0,92,43.37,,,-99.99,,2013-06-20 16:11:00,
2013-06-20 09:43:00,56.0,52.0,29.96,SSW,197,6.0,15.0,86,43.37,,,-99.99,,2013-06-20 16:43:00,
2013-06-20 09:52:00,56.0,52.0,29.96,South,188,5.0,11.0,86,43.37,,,-99.99,,2013-06-20 16:52:00,
2013-06-20 10:01:00,56.0,52.0,29.96,North,359,2.0,10.0,87,43.37,,,-99.99,,2013-06-20 17:01:00,
2013-06-20 10:11:00,57.0,53.0,29.96,SSE,163,3.0,11.0,86,43.37,,,-99.99,,2013-06-20 17:11:00,
2013-06-20 10:21:00,57.0,53.0,29.96,SSE,163,3.0,11.0,86,43.37,,,-99.99,,2013-06-20 17:21:00,
2013-06-20 10:42:00,57.0,53.0,29.95,North,359,3.0,11.0,85,43.37,,,-99.99,,2013-06-20 17:42:00,
2013-06-20 11:11:00,57.0,53.0,29.96,SE,146,5.0,11.0,86,43.37,,,-99.99,,2013-06-20 18:11:00,
2013-06-20 11:22:00,56.0,52.0,29.96,North,359,2.0,10.0,87,43.37,,,-99.99,,2013-06-20 18:22:00,
2013-06-20 11:33:00,56.0,52.0,29.96,North,359,2.0,10.0,87,43.37,,,-99.99,,2013-06-20 18:33:00,
2013-06-20 12:01:00,57.0,53.0,29.96,SW,224,5.0,14.0,85,43.37,,,-99.99,,2013-06-20 19:01:00,
2013-06-20 12:22:00,57.0,53.0,29.97,WSW,256,5.0,18.0,86,43.37,,,-99.99,,2013-06-20 19:22:00,
2013-06-20 13:11:00,58.0,54.0,29.98,WSW,249,2.0,9.0,87,43.37,,,-99.99,,2013-06-20 20:11:00,
2013-06-20 13:42:00,58.0,54.0,29.98,South,174,4.0,9.0,86,43.37,,,-99.99,,2013-06-20 20:42:00,
2013-06-20 13:52:00,57.0,53.0,29.98,SW,222,4.0,24.0,87,43.37,,,-99.99,,2013-06-20 20:52:00,
2013-06-20 14:01:00,57.0,53.0,29.98,South,187,4.0,15.0,86,43.37,,,-99.99,,2013-06-20 21:01:00,
2013-06-20 15:12:00,58.0,54.0,29.99,North,359,2.0,10.0,87,43.37,,,-99.99,,2013-06-20 22:12:00,
2013-06-20 21:11:00,55.0,54.0,30.04,North,359,0.0,7.0,95,43.40,,,-99.99,,2013-06-21 04:11:00,